Private Wetterstation Wechselburg
Wetterdaten: Montag, 23.08.2021
Datum Zeit Temp. +2m Bodentemp. Temp.+5cm Temp. Wind Windchill X Diff Temp. Feuchte +2m Feuchte +5cm Luftdruck Regen Wind Richtung Richtung Sonnenschein Taupunkt Windchill Windben
23.08.2021 00:00 14,1 C 19,9 C 15,1 C 15,2 C 15,2 C 1,1 C 88 % 92 % 1014,9 hPa 0,0 l/m 0,0 km/h (0 Bft) O-NO 67 0 min 12,1 C 15,2 C 0,0 km/h (0 Bft)
23.08.2021 00:05 14,1 C 19,9 C 15,1 C 15,2 C 15,2 C 1,1 C 88 % 92 % 1014,9 hPa 0,0 l/m 0,0 km/h (0 Bft) N-NW 337 0 min 12,1 C 15,2 C 0,0 km/h (0 Bft)
23.08.2021 00:10 14,1 C 19,9 C 15,1 C 15,2 C 15,2 C 1,1 C 88 % 92 % 1014,9 hPa 0,0 l/m 0,0 km/h (0 Bft) W-SW 247 0 min 12,1 C 15,2 C 0,0 km/h (0 Bft)
23.08.2021 00:15 14,0 C 19,9 C 15,1 C 15,3 C 15,3 C 1,3 C 88 % 92 % 1015,1 hPa 0,0 l/m 0,2 km/h (0 Bft) W-NW 292 0 min 12,0 C 15,3 C 0,0 km/h (0 Bft)
23.08.2021 00:20 14,1 C 20,0 C 15,1 C 15,3 C 15,3 C 1,2 C 88 % 92 % 1015,1 hPa 0,0 l/m 0,5 km/h (0 Bft) SO 135 0 min 12,1 C 15,3 C 3,7 km/h (1 Bft)
23.08.2021 00:25 14,1 C 20,0 C 15,1 C 15,4 C 15,4 C 1,3 C 88 % 92 % 1015,1 hPa 0,0 l/m 0,6 km/h (0 Bft) S-SW 202 0 min 12,1 C 15,4 C 0,0 km/h (0 Bft)
23.08.2021 00:30 14,1 C 20,0 C 15,1 C 15,4 C 15,4 C 1,3 C 88 % 92 % 1015,1 hPa 0,0 l/m 0,5 km/h (0 Bft) S 180 0 min 12,1 C 15,4 C 0,0 km/h (0 Bft)
23.08.2021 00:35 14,0 C 20,0 C 15,1 C 15,4 C 15,4 C 1,4 C 88 % 92 % 1015,2 hPa 0,0 l/m 0,3 km/h (0 Bft) SO 135 0 min 12,0 C 15,4 C 2,6 km/h (1 Bft)
23.08.2021 00:40 14,0 C 20,0 C 15,1 C 15,4 C 15,4 C 1,4 C 88 % 92 % 1015,2 hPa 0,0 l/m 0,3 km/h (0 Bft) O 90 0 min 12,0 C 15,4 C 4,5 km/h (1 Bft)
23.08.2021 00:45 13,9 C 19,9 C 15,0 C 15,4 C 15,4 C 1,5 C 88 % 92 % 1015,2 hPa 0,0 l/m 0,3 km/h (0 Bft) S 180 0 min 11,9 C 15,4 C 0,0 km/h (0 Bft)
23.08.2021 00:50 13,9 C 19,9 C 15,1 C 15,3 C 15,3 C 1,4 C 88 % 92 % 1015,2 hPa 0,0 l/m 0,3 km/h (0 Bft) S-SO 157 0 min 11,9 C 15,3 C 0,0 km/h (0 Bft)
23.08.2021 00:55 13,9 C 19,9 C 15,0 C 15,3 C 15,3 C 1,4 C 87 % 92 % 1015,1 hPa 0,0 l/m 0,3 km/h (0 Bft) S 180 0 min 11,8 C 15,3 C 0,0 km/h (0 Bft)
23.08.2021 01:00 13,9 C 19,9 C 15,0 C 15,2 C 15,2 C 1,3 C 87 % 92 % 1015,1 hPa 0,0 l/m 0,3 km/h (0 Bft) O-SO 112 0 min 11,8 C 15,2 C 0,0 km/h (0 Bft)
23.08.2021 01:05 13,8 C 19,9 C 15,0 C 15,2 C 15,2 C 1,4 C 88 % 92 % 1015,1 hPa 0,0 l/m 0,3 km/h (0 Bft) SW 225 0 min 11,8 C 15,2 C 0,0 km/h (0 Bft)
23.08.2021 01:10 13,9 C 19,9 C 15,0 C 15,1 C 15,1 C 1,2 C 88 % 92 % 1015,1 hPa 0,0 l/m 0,5 km/h (0 Bft) SW 225 0 min 11,9 C 15,1 C 2,1 km/h (1 Bft)
23.08.2021 01:15 13,7 C 19,9 C 14,9 C 15,1 C 15,1 C 1,4 C 88 % 92 % 1015,1 hPa 0,0 l/m 0,3 km/h (0 Bft) W-SW 247 0 min 11,7 C 15,1 C 0,0 km/h (0 Bft)
23.08.2021 01:20 13,7 C 19,9 C 14,9 C 15,0 C 15,0 C 1,3 C 88 % 92 % 1015,1 hPa 0,0 l/m 0,2 km/h (0 Bft) W-SW 247 0 min 11,7 C 15,0 C 0,0 km/h (0 Bft)
23.08.2021 01:25 13,6 C 19,9 C 14,9 C 15,0 C 15,0 C 1,4 C 88 % 92 % 1015,1 hPa 0,0 l/m 0,2 km/h (0 Bft) SW 225 0 min 11,6 C 15,0 C 0,0 km/h (0 Bft)
23.08.2021 01:30 13,7 C 19,9 C 14,8 C 15,0 C 15,0 C 1,3 C 88 % 92 % 1015,1 hPa 0,0 l/m 0,2 km/h (0 Bft) S-SW 202 0 min 11,7 C 15,0 C 3,2 km/h (1 Bft)
23.08.2021 01:35 13,6 C 19,9 C 14,8 C 15,0 C 15,0 C 1,4 C 88 % 92 % 1015,1 hPa 0,0 l/m 0,3 km/h (0 Bft) W-SW 247 0 min 11,6 C 15,0 C 0,0 km/h (0 Bft)
23.08.2021 01:40 13,6 C 19,9 C 14,8 C 14,9 C 14,9 C 1,3 C 88 % 92 % 1015,1 hPa 0,0 l/m 0,3 km/h (0 Bft) S 180 0 min 11,6 C 14,9 C 4,2 km/h (1 Bft)
23.08.2021 01:45 13,5 C 19,9 C 14,7 C 14,9 C 14,9 C 1,4 C 88 % 92 % 1015,1 hPa 0,0 l/m 0,3 km/h (0 Bft) W 270 0 min 11,6 C 14,9 C 0,0 km/h (0 Bft)
23.08.2021 01:50 13,5 C 19,9 C 14,7 C 14,9 C 14,9 C 1,4 C 88 % 92 % 1015,1 hPa 0,0 l/m 0,3 km/h (0 Bft) S-SW 202 0 min 11,6 C 14,9 C 0,0 km/h (0 Bft)
23.08.2021 01:55 13,4 C 19,8 C 14,7 C 14,9 C 14,9 C 1,5 C 88 % 92 % 1015,2 hPa 0,0 l/m 0,3 km/h (0 Bft) W-SW 247 0 min 11,5 C 14,9 C 1,8 km/h (1 Bft)
23.08.2021 02:00 13,4 C 19,8 C 14,7 C 14,9 C 14,9 C 1,5 C 88 % 92 % 1015,2 hPa 0,0 l/m 0,3 km/h (0 Bft) SW 225 0 min 11,5 C 14,9 C 5,0 km/h (1 Bft)
23.08.2021 02:05 13,5 C 19,8 C 14,7 C 14,9 C 14,9 C 1,4 C 88 % 92 % 1015,2 hPa 0,0 l/m 0,2 km/h (0 Bft) W-SW 247 0 min 11,6 C 14,9 C 0,0 km/h (0 Bft)
23.08.2021 02:10 13,5 C 19,8 C 14,7 C 14,9 C 14,9 C 1,4 C 88 % 92 % 1015,2 hPa 0,0 l/m 0,2 km/h (0 Bft) SW 225 0 min 11,6 C 14,9 C 0,0 km/h (0 Bft)
23.08.2021 02:15 13,5 C 19,8 C 14,7 C 14,8 C 14,8 C 1,3 C 88 % 92 % 1015,2 hPa 0,0 l/m 0,3 km/h (0 Bft) S 180 0 min 11,6 C 14,8 C 2,4 km/h (1 Bft)
23.08.2021 02:20 13,4 C 19,8 C 14,7 C 14,8 C 14,8 C 1,4 C 88 % 92 % 1015,2 hPa 0,0 l/m 0,5 km/h (0 Bft) W-SW 247 0 min 11,5 C 14,8 C 0,0 km/h (0 Bft)
23.08.2021 02:25 13,3 C 19,8 C 14,7 C 14,8 C 14,8 C 1,5 C 88 % 92 % 1015,2 hPa 0,0 l/m 0,3 km/h (0 Bft) W-SW 247 0 min 11,4 C 14,8 C 0,0 km/h (0 Bft)
23.08.2021 02:30 13,3 C 19,8 C 14,7 C 14,8 C 14,8 C 1,5 C 88 % 92 % 1015,2 hPa 0,0 l/m 0,0 km/h (0 Bft) SW 225 0 min 11,4 C 14,8 C 0,0 km/h (0 Bft)
23.08.2021 02:35 13,3 C 19,8 C 14,6 C 14,8 C 14,8 C 1,5 C 88 % 92 % 1015,3 hPa 0,0 l/m 0,0 km/h (0 Bft) SW 225 0 min 11,4 C 14,8 C 0,0 km/h (0 Bft)
23.08.2021 02:40 13,3 C 19,8 C 14,6 C 14,8 C 14,8 C 1,5 C 88 % 92 % 1015,3 hPa 0,0 l/m 0,2 km/h (0 Bft) S 180 0 min 11,4 C 14,8 C 0,0 km/h (0 Bft)
23.08.2021 02:45 13,3 C 19,8 C 14,6 C 14,8 C 14,8 C 1,5 C 88 % 92 % 1015,3 hPa 0,0 l/m 0,2 km/h (0 Bft) SW 225 0 min 11,4 C 14,8 C 0,0 km/h (0 Bft)
23.08.2021 02:50 13,3 C 19,8 C 14,6 C 14,8 C 14,8 C 1,5 C 88 % 92 % 1015,3 hPa 0,0 l/m 0,3 km/h (0 Bft) SW 225 0 min 11,4 C 14,8 C 1,6 km/h (1 Bft)
23.08.2021 02:55 13,2 C 19,8 C 14,6 C 14,7 C 14,7 C 1,5 C 88 % 92 % 1015,1 hPa 0,0 l/m 0,3 km/h (0 Bft) W-SW 247 0 min 11,3 C 14,7 C 2,4 km/h (1 Bft)
23.08.2021 03:00 13,4 C 19,8 C 14,6 C 14,7 C 14,7 C 1,3 C 88 % 92 % 1015,1 hPa 0,0 l/m 0,3 km/h (0 Bft) SW 225 0 min 11,5 C 14,7 C 0,0 km/h (0 Bft)
23.08.2021 03:05 13,4 C 19,8 C 14,6 C 14,7 C 14,7 C 1,3 C 88 % 92 % 1015,1 hPa 0,0 l/m 0,2 km/h (0 Bft) SW 225 0 min 11,5 C 14,7 C 0,0 km/h (0 Bft)
23.08.2021 03:10 13,4 C 19,8 C 14,6 C 14,8 C 14,8 C 1,4 C 88 % 92 % 1015,1 hPa 0,0 l/m 0,0 km/h (0 Bft) S-SO 157 0 min 11,5 C 14,8 C 0,0 km/h (0 Bft)
23.08.2021 03:15 13,3 C 19,8 C 14,6 C 14,8 C 14,8 C 1,5 C 88 % 92 % 1015,1 hPa 0,0 l/m 0,2 km/h (0 Bft) S 180 0 min 11,4 C 14,8 C 0,0 km/h (0 Bft)
23.08.2021 03:20 13,3 C 19,8 C 14,6 C 14,8 C 14,8 C 1,5 C 88 % 92 % 1015,1 hPa 0,0 l/m 0,3 km/h (0 Bft) S-SW 202 0 min 11,4 C 14,8 C 0,0 km/h (0 Bft)
23.08.2021 03:25 13,4 C 19,8 C 14,6 C 14,7 C 14,7 C 1,3 C 88 % 92 % 1015,1 hPa 0,0 l/m 0,2 km/h (0 Bft) SW 225 0 min 11,5 C 14,7 C 0,0 km/h (0 Bft)
23.08.2021 03:30 13,5 C 19,8 C 14,6 C 14,7 C 14,7 C 1,2 C 88 % 92 % 1015,1 hPa 0,0 l/m 0,0 km/h (0 Bft) S-SW 202 0 min 11,6 C 14,7 C 0,0 km/h (0 Bft)
23.08.2021 03:35 13,5 C 19,8 C 14,6 C 14,7 C 14,7 C 1,2 C 89 % 92 % 1015,1 hPa 0,0 l/m 0,2 km/h (0 Bft) S-SW 202 0 min 11,7 C 14,7 C 2,3 km/h (1 Bft)
23.08.2021 03:40 13,5 C 19,8 C 14,6 C 14,7 C 14,7 C 1,2 C 89 % 92 % 1015,1 hPa 0,0 l/m 0,3 km/h (0 Bft) SW 225 0 min 11,7 C 14,7 C 0,0 km/h (0 Bft)
23.08.2021 03:45 13,5 C 19,8 C 14,6 C 14,7 C 14,7 C 1,2 C 89 % 92 % 1015,1 hPa 0,0 l/m 0,3 km/h (0 Bft) W-SW 247 0 min 11,7 C 14,7 C 0,0 km/h (0 Bft)
23.08.2021 03:50 13,4 C 19,8 C 14,6 C 14,7 C 14,7 C 1,3 C 88 % 92 % 1015,1 hPa 0,0 l/m 0,3 km/h (0 Bft) SW 225 0 min 11,5 C 14,7 C 0,0 km/h (0 Bft)
23.08.2021 03:55 13,4 C 19,7 C 14,5 C 14,7 C 14,7 C 1,3 C 88 % 92 % 1015,1 hPa 0,0 l/m 0,3 km/h (0 Bft) S-SW 202 0 min 11,5 C 14,7 C 0,0 km/h (0 Bft)
23.08.2021 04:00 13,5 C 19,7 C 14,5 C 14,7 C 14,7 C 1,2 C 89 % 92 % 1015,1 hPa 0,7 l/m 0,2 km/h (0 Bft) SW 225 0 min 11,7 C 14,7 C 0,0 km/h (0 Bft)
23.08.2021 04:05 13,4 C 19,7 C 14,5 C 14,7 C 14,7 C 1,3 C 88 % 92 % 1015,1 hPa 0,0 l/m 0,3 km/h (0 Bft) SO 135 0 min 11,5 C 14,7 C 2,6 km/h (1 Bft)
23.08.2021 04:10 13,5 C 19,7 C 14,5 C 14,7 C 14,7 C 1,2 C 89 % 92 % 1015,1 hPa 0,0 l/m 0,3 km/h (0 Bft) S-SO 157 0 min 11,7 C 14,7 C 0,0 km/h (0 Bft)
23.08.2021 04:15 13,5 C 19,7 C 14,5 C 14,7 C 14,7 C 1,2 C 89 % 92 % 1014,9 hPa 0,0 l/m 0,5 km/h (0 Bft) W 270 0 min 11,7 C 14,7 C 0,0 km/h (0 Bft)
23.08.2021 04:20 13,5 C 19,7 C 14,5 C 14,7 C 14,7 C 1,2 C 89 % 92 % 1014,9 hPa 0,0 l/m 0,5 km/h (0 Bft) NO 45 0 min 11,7 C 14,7 C 2,3 km/h (1 Bft)
23.08.2021 04:25 13,5 C 19,7 C 14,5 C 14,7 C 14,7 C 1,2 C 89 % 92 % 1014,9 hPa 0,0 l/m 0,5 km/h (0 Bft) N 360 0 min 11,7 C 14,7 C 0,0 km/h (0 Bft)
23.08.2021 04:30 13,5 C 19,7 C 14,5 C 14,7 C 14,7 C 1,2 C 89 % 91 % 1014,9 hPa 0,0 l/m 0,6 km/h (0 Bft) S-SO 157 0 min 11,7 C 14,7 C 5,6 km/h (1 Bft)
23.08.2021 04:35 13,5 C 19,7 C 14,5 C 14,7 C 14,7 C 1,2 C 89 % 92 % 1014,8 hPa 0,7 l/m 0,6 km/h (0 Bft) W 270 0 min 11,7 C 14,7 C 2,3 km/h (1 Bft)
23.08.2021 04:40 13,5 C 19,7 C 14,5 C 14,7 C 14,7 C 1,2 C 89 % 91 % 1014,8 hPa 0,0 l/m 0,5 km/h (0 Bft) W-SW 247 0 min 11,7 C 14,7 C 1,9 km/h (1 Bft)
23.08.2021 04:45 13,5 C 19,7 C 14,5 C 14,7 C 14,7 C 1,2 C 89 % 91 % 1014,8 hPa 0,0 l/m 0,8 km/h (0 Bft) W-SW 247 0 min 11,7 C 14,7 C 1,8 km/h (1 Bft)
23.08.2021 04:50 13,5 C 19,7 C 14,5 C 14,7 C 14,7 C 1,2 C 89 % 91 % 1014,8 hPa 0,0 l/m 0,6 km/h (0 Bft) S 180 0 min 11,7 C 14,7 C 0,0 km/h (0 Bft)
23.08.2021 04:55 13,4 C 19,7 C 14,5 C 14,7 C 14,7 C 1,3 C 88 % 91 % 1014,6 hPa 0,0 l/m 0,6 km/h (0 Bft) S-SO 157 0 min 11,5 C 14,7 C 0,0 km/h (0 Bft)
23.08.2021 05:00 13,4 C 19,7 C 14,5 C 14,7 C 14,7 C 1,3 C 88 % 91 % 1014,6 hPa 0,0 l/m 0,8 km/h (0 Bft) SW 225 0 min 11,5 C 14,7 C 1,9 km/h (1 Bft)
23.08.2021 05:05 13,5 C 19,7 C 14,5 C 14,7 C 14,7 C 1,2 C 89 % 91 % 1014,6 hPa 0,0 l/m 0,5 km/h (0 Bft) SW 225 0 min 11,7 C 14,7 C 2,3 km/h (1 Bft)
23.08.2021 05:10 13,5 C 19,7 C 14,5 C 14,7 C 14,7 C 1,2 C 89 % 91 % 1014,6 hPa 0,0 l/m 0,5 km/h (0 Bft) S-SW 202 0 min 11,7 C 14,7 C 4,0 km/h (1 Bft)
23.08.2021 05:15 13,5 C 19,7 C 14,5 C 14,7 C 14,7 C 1,2 C 89 % 91 % 1014,7 hPa 0,0 l/m 0,6 km/h (0 Bft) S-SO 157 0 min 11,7 C 14,7 C 0,0 km/h (0 Bft)
23.08.2021 05:20 13,5 C 19,7 C 14,5 C 14,8 C 14,8 C 1,3 C 89 % 91 % 1014,7 hPa 0,0 l/m 0,6 km/h (0 Bft) SW 225 0 min 11,7 C 14,8 C 1,6 km/h (1 Bft)
23.08.2021 05:25 13,5 C 19,7 C 14,5 C 14,8 C 14,8 C 1,3 C 89 % 91 % 1014,7 hPa 0,0 l/m 0,8 km/h (0 Bft) S 180 0 min 11,7 C 14,8 C 0,0 km/h (0 Bft)
23.08.2021 05:30 13,5 C 19,7 C 14,5 C 14,8 C 14,8 C 1,3 C 89 % 91 % 1014,7 hPa 0,0 l/m 1,0 km/h (0 Bft) SW 225 0 min 11,7 C 14,8 C 0,0 km/h (0 Bft)
23.08.2021 05:35 13,5 C 19,7 C 14,6 C 14,8 C 14,8 C 1,3 C 89 % 91 % 1014,3 hPa 0,0 l/m 0,8 km/h (0 Bft) SW 225 0 min 11,7 C 14,8 C 1,9 km/h (1 Bft)
23.08.2021 05:40 13,5 C 19,7 C 14,6 C 14,8 C 14,8 C 1,3 C 89 % 91 % 1014,3 hPa 0,0 l/m 1,0 km/h (0 Bft) SW 225 0 min 11,7 C 14,8 C 0,0 km/h (0 Bft)
23.08.2021 05:45 13,6 C 19,7 C 14,5 C 14,8 C 14,8 C 1,2 C 89 % 91 % 1014,3 hPa 1,4 l/m 1,3 km/h (1 Bft) SW 225 0 min 11,8 C 14,8 C 1,9 km/h (1 Bft)
23.08.2021 05:50 13,6 C 19,7 C 14,5 C 14,8 C 14,8 C 1,2 C 89 % 91 % 1014,3 hPa 2,7 l/m 1,1 km/h (1 Bft) SW 225 0 min 11,8 C 14,8 C 1,8 km/h (1 Bft)
23.08.2021 05:55 13,6 C 19,7 C 14,5 C 14,8 C 14,8 C 1,2 C 89 % 91 % 1014,4 hPa 0,7 l/m 1,0 km/h (0 Bft) S-SO 157 0 min 11,8 C 14,8 C 0,0 km/h (0 Bft)
23.08.2021 06:00 13,6 C 19,7 C 14,5 C 14,8 C 14,8 C 1,2 C 89 % 91 % 1014,4 hPa 0,0 l/m 0,8 km/h (0 Bft) S-SW 202 0 min 11,8 C 14,8 C 9,2 km/h (2 Bft)
23.08.2021 06:05 13,7 C 19,7 C 14,6 C 14,8 C 14,8 C 1,1 C 89 % 91 % 1014,4 hPa 0,0 l/m 0,6 km/h (0 Bft) W-SW 247 0 min 11,9 C 14,8 C 2,1 km/h (1 Bft)
23.08.2021 06:10 13,6 C 19,7 C 14,6 C 14,8 C 14,8 C 1,2 C 89 % 91 % 1014,4 hPa 0,0 l/m 1,3 km/h (1 Bft) NO 45 0 min 11,8 C 14,8 C 0,0 km/h (0 Bft)
23.08.2021 06:15 13,6 C 19,7 C 14,6 C 14,9 C 14,9 C 1,3 C 89 % 91 % 1014,2 hPa 0,0 l/m 1,6 km/h (1 Bft) SW 225 0 min 11,8 C 14,9 C 2,7 km/h (1 Bft)
23.08.2021 06:20 13,7 C 19,7 C 14,6 C 14,9 C 14,9 C 1,2 C 89 % 91 % 1014,2 hPa 0,0 l/m 1,4 km/h (1 Bft) NW 315 5 min 11,9 C 14,9 C 1,6 km/h (1 Bft)
23.08.2021 06:25 13,7 C 19,7 C 14,7 C 14,9 C 14,9 C 1,2 C 89 % 91 % 1014,2 hPa 0,7 l/m 1,1 km/h (1 Bft) S-SW 202 5 min 11,9 C 14,9 C 1,9 km/h (1 Bft)
23.08.2021 06:30 13,7 C 19,7 C 14,6 C 14,9 C 14,9 C 1,2 C 89 % 91 % 1014,2 hPa 1,4 l/m 1,6 km/h (1 Bft) SW 225 5 min 11,9 C 14,9 C 3,1 km/h (1 Bft)
23.08.2021 06:35 13,7 C 19,7 C 14,7 C 14,9 C 14,9 C 1,2 C 89 % 91 % 1014,3 hPa 2,1 l/m 1,6 km/h (1 Bft) S 180 5 min 11,9 C 14,9 C 3,7 km/h (1 Bft)
23.08.2021 06:40 13,7 C 19,7 C 14,7 C 14,9 C 14,9 C 1,2 C 89 % 91 % 1014,3 hPa 1,4 l/m 1,6 km/h (1 Bft) S 180 5 min 11,9 C 14,9 C 0,0 km/h (0 Bft)
23.08.2021 06:45 13,7 C 19,6 C 14,6 C 14,9 C 14,9 C 1,2 C 89 % 91 % 1014,3 hPa 1,4 l/m 1,9 km/h (1 Bft) W-SW 247 5 min 11,9 C 14,9 C 2,7 km/h (1 Bft)
23.08.2021 06:50 13,7 C 19,6 C 14,6 C 14,9 C 14,9 C 1,2 C 89 % 91 % 1014,3 hPa 0,0 l/m 2,3 km/h (1 Bft) SW 225 5 min 11,9 C 14,9 C 4,0 km/h (1 Bft)
23.08.2021 06:55 13,6 C 19,6 C 14,5 C 14,8 C 14,8 C 1,2 C 89 % 92 % 1014,1 hPa 0,7 l/m 2,7 km/h (1 Bft) W-SW 247 5 min 11,8 C 14,8 C 3,1 km/h (1 Bft)
23.08.2021 07:00 13,7 C 19,6 C 14,5 C 14,8 C 14,8 C 1,1 C 89 % 91 % 1014,1 hPa 0,7 l/m 2,4 km/h (1 Bft) O-SO 112 0 min 11,9 C 14,8 C 4,0 km/h (1 Bft)
23.08.2021 07:05 13,6 C 19,6 C 14,5 C 14,7 C 14,7 C 1,1 C 89 % 91 % 1014,1 hPa 0,7 l/m 1,8 km/h (1 Bft) SO 135 0 min 11,8 C 14,7 C 1,9 km/h (1 Bft)
23.08.2021 07:10 13,6 C 19,6 C 14,5 C 14,7 C 14,7 C 1,1 C 89 % 91 % 1014,1 hPa 0,7 l/m 1,3 km/h (1 Bft) W-SW 247 0 min 11,8 C 14,7 C 9,8 km/h (2 Bft)
23.08.2021 07:15 13,7 C 19,5 C 14,5 C 14,8 C 14,8 C 1,1 C 89 % 91 % 1014,1 hPa 0,7 l/m 0,6 km/h (0 Bft) O-NO 67 0 min 11,9 C 14,8 C 1,8 km/h (1 Bft)
23.08.2021 07:20 13,6 C 19,5 C 14,5 C 14,8 C 14,8 C 1,2 C 89 % 91 % 1014,1 hPa 0,0 l/m 1,1 km/h (1 Bft) O-NO 67 0 min 11,8 C 14,8 C 0,0 km/h (0 Bft)
23.08.2021 07:25 13,6 C 19,5 C 14,5 C 14,8 C 14,8 C 1,2 C 89 % 91 % 1014,1 hPa 0,7 l/m 1,3 km/h (1 Bft) W-SW 247 0 min 11,8 C 14,8 C 3,1 km/h (1 Bft)
23.08.2021 07:30 13,6 C 19,6 C 14,5 C 14,8 C 14,8 C 1,2 C 89 % 91 % 1014,1 hPa 0,7 l/m 1,0 km/h (0 Bft) S-SW 202 0 min 11,8 C 14,8 C 0,0 km/h (0 Bft)
23.08.2021 07:35 13,6 C 19,6 C 14,5 C 14,8 C 14,8 C 1,2 C 89 % 91 % 1014,1 hPa 0,7 l/m 0,8 km/h (0 Bft) SW 225 0 min 11,8 C 14,8 C 0,0 km/h (0 Bft)
23.08.2021 07:40 13,6 C 19,6 C 14,5 C 14,8 C 14,8 C 1,2 C 89 % 91 % 1014,1 hPa 0,7 l/m 0,6 km/h (0 Bft) SW 225 0 min 11,8 C 14,8 C 2,3 km/h (1 Bft)
23.08.2021 07:45 13,6 C 19,6 C 14,5 C 14,8 C 14,8 C 1,2 C 89 % 91 % 1014,1 hPa 0,0 l/m 0,6 km/h (0 Bft) W-SW 247 0 min 11,8 C 14,8 C 3,1 km/h (1 Bft)
23.08.2021 07:50 13,6 C 19,6 C 14,6 C 14,8 C 14,8 C 1,2 C 89 % 91 % 1014,1 hPa 0,7 l/m 0,6 km/h (0 Bft) W-SW 247 0 min 11,8 C 14,8 C 3,7 km/h (1 Bft)
23.08.2021 07:55 13,7 C 19,6 C 14,6 C 14,9 C 14,9 C 1,2 C 89 % 91 % 1014,3 hPa 0,7 l/m 0,8 km/h (0 Bft) W-SW 247 0 min 11,9 C 14,9 C 3,1 km/h (1 Bft)
23.08.2021 08:00 13,9 C 19,6 C 14,6 C 15,0 C 15,0 C 1,1 C 89 % 91 % 1014,3 hPa 0,0 l/m 1,3 km/h (1 Bft) NW 315 0 min 12,1 C 15,0 C 1,8 km/h (1 Bft)
23.08.2021 08:05 13,9 C 19,6 C 14,7 C 15,1 C 15,1 C 1,2 C 89 % 91 % 1014,3 hPa 0,0 l/m 1,0 km/h (0 Bft) S-SW 202 0 min 12,1 C 15,1 C 0,0 km/h (0 Bft)
23.08.2021 08:10 14,0 C 19,7 C 14,7 C 15,1 C 15,1 C 1,1 C 89 % 91 % 1014,3 hPa 0,0 l/m 0,5 km/h (0 Bft) S-SO 157 0 min 12,2 C 15,1 C 1,8 km/h (1 Bft)
23.08.2021 08:15 14,0 C 19,7 C 14,7 C 15,1 C 15,1 C 1,1 C 89 % 91 % 1014,5 hPa 0,7 l/m 1,1 km/h (1 Bft) W 270 0 min 12,2 C 15,1 C 0,0 km/h (0 Bft)
23.08.2021 08:20 14,1 C 19,7 C 14,7 C 15,1 C 15,1 C 1,0 C 89 % 91 % 1014,5 hPa 0,0 l/m 1,3 km/h (1 Bft) W-NW 292 0 min 12,3 C 15,1 C 0,0 km/h (0 Bft)
23.08.2021 08:25 14,0 C 19,7 C 14,8 C 15,1 C 15,1 C 1,1 C 89 % 91 % 1014,5 hPa 0,0 l/m 1,1 km/h (1 Bft) W 270 0 min 12,2 C 15,1 C 5,5 km/h (1 Bft)
23.08.2021 08:30 14,0 C 19,8 C 14,8 C 15,1 C 15,1 C 1,1 C 89 % 91 % 1014,5 hPa 0,0 l/m 1,6 km/h (1 Bft) SW 225 0 min 12,2 C 15,1 C 1,8 km/h (1 Bft)
23.08.2021 08:35 14,0 C 19,8 C 14,8 C 15,2 C 15,2 C 1,2 C 89 % 91 % 1014,3 hPa 0,7 l/m 1,6 km/h (1 Bft) W 270 0 min 12,2 C 15,2 C 0,0 km/h (0 Bft)
23.08.2021 08:40 14,1 C 19,8 C 14,9 C 15,2 C 15,2 C 1,1 C 89 % 91 % 1014,3 hPa 0,0 l/m 1,0 km/h (0 Bft) S 180 0 min 12,3 C 15,2 C 1,8 km/h (1 Bft)
23.08.2021 08:45 14,2 C 19,8 C 15,0 C 15,4 C 15,4 C 1,2 C 89 % 91 % 1014,3 hPa 0,7 l/m 0,5 km/h (0 Bft) SW 225 0 min 12,4 C 15,4 C 3,1 km/h (1 Bft)
23.08.2021 08:50 14,1 C 19,9 C 15,0 C 15,4 C 15,4 C 1,3 C 89 % 91 % 1014,3 hPa 0,0 l/m 0,8 km/h (0 Bft) W-NW 292 0 min 12,3 C 15,4 C 1,9 km/h (1 Bft)
23.08.2021 08:55 14,3 C 19,9 C 14,9 C 15,4 C 15,4 C 1,1 C 89 % 91 % 1014,5 hPa 0,0 l/m 0,8 km/h (0 Bft) S-SW 202 0 min 12,5 C 15,4 C 3,7 km/h (1 Bft)
23.08.2021 09:00 14,3 C 19,9 C 15,0 C 15,4 C 15,4 C 1,1 C 89 % 91 % 1014,5 hPa 0,0 l/m 0,6 km/h (0 Bft) W-SW 247 0 min 12,5 C 15,4 C 0,0 km/h (0 Bft)
23.08.2021 09:05 14,2 C 19,9 C 15,0 C 15,4 C 15,4 C 1,2 C 89 % 91 % 1014,5 hPa 0,0 l/m 0,6 km/h (0 Bft) O 90 0 min 12,4 C 15,4 C 6,3 km/h (2 Bft)
23.08.2021 09:10 14,3 C 19,9 C 15,0 C 15,4 C 15,4 C 1,1 C 89 % 91 % 1014,5 hPa 0,0 l/m 0,5 km/h (0 Bft) W 270 0 min 12,5 C 15,4 C 1,8 km/h (1 Bft)
23.08.2021 09:15 14,3 C 20,0 C 15,0 C 15,4 C 15,4 C 1,1 C 89 % 91 % 1014,6 hPa 0,0 l/m 0,8 km/h (0 Bft) S 180 0 min 12,5 C 15,4 C 0,0 km/h (0 Bft)
23.08.2021 09:20 14,3 C 20,0 C 15,1 C 15,5 C 15,5 C 1,2 C 89 % 91 % 1014,6 hPa 0,0 l/m 0,5 km/h (0 Bft) SW 225 0 min 12,5 C 15,5 C 0,0 km/h (0 Bft)
23.08.2021 09:25 14,4 C 20,0 C 15,1 C 15,5 C 15,5 C 1,1 C 89 % 91 % 1014,6 hPa 0,0 l/m 0,3 km/h (0 Bft) SW 225 0 min 12,6 C 15,5 C 2,3 km/h (1 Bft)
23.08.2021 09:30 14,4 C 20,0 C 15,1 C 15,5 C 15,5 C 1,1 C 89 % 91 % 1014,6 hPa 0,0 l/m 0,3 km/h (0 Bft) S 180 0 min 12,6 C 15,5 C 2,1 km/h (1 Bft)
23.08.2021 09:35 14,5 C 20,0 C 15,1 C 15,6 C 15,6 C 1,1 C 89 % 91 % 1014,6 hPa 0,7 l/m 0,3 km/h (0 Bft) SW 225 0 min 12,7 C 15,6 C 0,0 km/h (0 Bft)
23.08.2021 09:40 14,4 C 20,0 C 15,1 C 15,5 C 15,5 C 1,1 C 89 % 91 % 1014,6 hPa 0,0 l/m 0,2 km/h (0 Bft) SW 225 0 min 12,6 C 15,5 C 0,0 km/h (0 Bft)
23.08.2021 09:45 14,5 C 20,0 C 15,1 C 15,5 C 15,5 C 1,0 C 89 % 91 % 1014,6 hPa 0,0 l/m 0,2 km/h (0 Bft) SO 135 0 min 12,7 C 15,5 C 0,0 km/h (0 Bft)
23.08.2021 09:50 14,5 C 20,1 C 15,1 C 15,5 C 15,5 C 1,0 C 89 % 91 % 1014,6 hPa 0,0 l/m 0,5 km/h (0 Bft) W-SW 247 0 min 12,7 C 15,5 C 1,9 km/h (1 Bft)
23.08.2021 09:55 14,4 C 20,1 C 15,2 C 15,6 C 15,6 C 1,2 C 89 % 91 % 1014,8 hPa 0,0 l/m 1,0 km/h (0 Bft) W-SW 247 0 min 12,6 C 15,6 C 0,0 km/h (0 Bft)
23.08.2021 10:00 14,5 C 20,1 C 15,2 C 15,7 C 15,7 C 1,2 C 89 % 91 % 1014,8 hPa 0,7 l/m 0,8 km/h (0 Bft) W-SW 247 0 min 12,7 C 15,7 C 0,0 km/h (0 Bft)
23.08.2021 10:05 14,6 C 20,1 C 15,3 C 15,8 C 15,8 C 1,2 C 89 % 91 % 1014,8 hPa 0,0 l/m 0,2 km/h (0 Bft) SW 225 0 min 12,8 C 15,8 C 0,0 km/h (0 Bft)
23.08.2021 10:10 14,7 C 20,1 C 15,3 C 15,9 C 15,9 C 1,2 C 89 % 91 % 1014,8 hPa 0,0 l/m 0,3 km/h (0 Bft) SW 225 0 min 12,9 C 15,9 C 0,0 km/h (0 Bft)
23.08.2021 10:15 14,6 C 20,1 C 15,3 C 15,9 C 15,9 C 1,3 C 89 % 91 % 1014,8 hPa 0,0 l/m 0,3 km/h (0 Bft) W 270 0 min 12,8 C 15,9 C 0,0 km/h (0 Bft)
23.08.2021 10:20 14,7 C 20,1 C 15,4 C 15,9 C 15,9 C 1,2 C 89 % 91 % 1014,8 hPa 0,0 l/m 0,3 km/h (0 Bft) NW 315 0 min 12,9 C 15,9 C 0,0 km/h (0 Bft)
23.08.2021 10:25 14,7 C 20,1 C 15,4 C 15,9 C 15,9 C 1,2 C 89 % 91 % 1014,8 hPa 0,7 l/m 0,3 km/h (0 Bft) S 180 0 min 12,9 C 15,9 C 0,0 km/h (0 Bft)
23.08.2021 10:30 14,7 C 20,1 C 15,3 C 15,9 C 15,9 C 1,2 C 89 % 91 % 1014,8 hPa 0,0 l/m 0,3 km/h (0 Bft) SW 225 0 min 12,9 C 15,9 C 0,0 km/h (0 Bft)
23.08.2021 10:35 14,6 C 20,1 C 15,4 C 15,9 C 15,9 C 1,3 C 89 % 91 % 1014,8 hPa 0,0 l/m 0,3 km/h (0 Bft) W 270 0 min 12,8 C 15,9 C 0,0 km/h (0 Bft)
23.08.2021 10:40 14,7 C 20,1 C 15,4 C 15,9 C 15,9 C 1,2 C 89 % 91 % 1014,8 hPa 0,7 l/m 0,3 km/h (0 Bft) S-SW 202 0 min 12,9 C 15,9 C 0,0 km/h (0 Bft)
23.08.2021 10:45 14,6 C 20,1 C 15,4 C 15,9 C 15,9 C 1,3 C 89 % 91 % 1014,8 hPa 0,0 l/m 0,3 km/h (0 Bft) SW 225 0 min 12,8 C 15,9 C 2,9 km/h (1 Bft)
23.08.2021 10:50 14,7 C 20,1 C 15,4 C 15,9 C 15,9 C 1,2 C 89 % 91 % 1014,8 hPa 0,0 l/m 0,3 km/h (0 Bft) W-SW 247 0 min 12,9 C 15,9 C 0,0 km/h (0 Bft)
23.08.2021 10:55 14,7 C 20,2 C 15,4 C 15,9 C 15,9 C 1,2 C 89 % 91 % 1015,8 hPa 0,7 l/m 0,3 km/h (0 Bft) O-NO 67 0 min 12,9 C 15,9 C 0,0 km/h (0 Bft)
23.08.2021 11:00 14,7 C 20,2 C 15,5 C 15,9 C 15,9 C 1,2 C 89 % 91 % 1015,8 hPa 0,0 l/m 0,3 km/h (0 Bft) SW 225 0 min 12,9 C 15,9 C 0,0 km/h (0 Bft)
23.08.2021 11:05 14,8 C 20,2 C 15,5 C 16,1 C 16,1 C 1,3 C 89 % 91 % 1015,8 hPa 0,0 l/m 0,2 km/h (0 Bft) SW 225 0 min 13,0 C 16,1 C 0,0 km/h (0 Bft)
23.08.2021 11:10 14,9 C 20,2 C 15,5 C 16,2 C 16,2 C 1,3 C 89 % 91 % 1015,8 hPa 0,7 l/m 0,2 km/h (0 Bft) SO 135 0 min 13,1 C 16,2 C 0,0 km/h (0 Bft)
23.08.2021 11:15 14,9 C 20,2 C 15,5 C 16,3 C 16,3 C 1,4 C 89 % 91 % 1015,2 hPa 0,0 l/m 0,3 km/h (0 Bft) NW 315 0 min 13,1 C 16,3 C 0,0 km/h (0 Bft)
23.08.2021 11:20 14,9 C 20,2 C 15,6 C 16,3 C 16,3 C 1,4 C 89 % 91 % 1015,2 hPa 0,0 l/m 0,3 km/h (0 Bft) W-NW 292 0 min 13,1 C 16,3 C 0,0 km/h (0 Bft)
23.08.2021 11:25 15,1 C 20,2 C 15,6 C 16,5 C 16,5 C 1,4 C 89 % 91 % 1015,2 hPa 0,7 l/m 0,3 km/h (0 Bft) W-NW 292 0 min 13,3 C 16,5 C 1,8 km/h (1 Bft)
23.08.2021 11:30 15,1 C 20,2 C 15,7 C 16,5 C 16,5 C 1,4 C 89 % 91 % 1015,2 hPa 0,0 l/m 1,1 km/h (1 Bft) W 270 0 min 13,3 C 16,5 C 5,3 km/h (1 Bft)
23.08.2021 11:35 15,1 C 20,2 C 15,7 C 16,6 C 16,6 C 1,5 C 89 % 91 % 1015,2 hPa 0,0 l/m 1,6 km/h (1 Bft) NW 315 0 min 13,3 C 16,6 C 0,0 km/h (0 Bft)
23.08.2021 11:40 15,1 C 20,2 C 15,8 C 16,8 C 16,8 C 1,7 C 89 % 91 % 1015,2 hPa 0,0 l/m 1,1 km/h (1 Bft) NW 315 0 min 13,3 C 16,8 C 2,7 km/h (1 Bft)
23.08.2021 11:45 15,2 C 20,2 C 15,9 C 17,0 C 17,0 C 1,8 C 89 % 91 % 1015,2 hPa 0,0 l/m 0,5 km/h (0 Bft) S 180 0 min 13,4 C 17,0 C 0,0 km/h (0 Bft)
23.08.2021 11:50 15,3 C 20,2 C 15,9 C 17,0 C 17,0 C 1,7 C 89 % 91 % 1015,2 hPa 0,7 l/m 1,0 km/h (0 Bft) SW 225 0 min 13,5 C 17,0 C 4,2 km/h (1 Bft)
23.08.2021 11:55 15,1 C 20,2 C 15,8 C 16,6 C 16,6 C 1,5 C 89 % 91 % 1015,4 hPa 0,0 l/m 2,7 km/h (1 Bft) W-NW 292 0 min 13,3 C 16,6 C 5,6 km/h (1 Bft)
23.08.2021 12:00 15,1 C 20,2 C 15,6 C 16,4 C 16,4 C 1,3 C 89 % 91 % 1015,4 hPa 0,0 l/m 3,9 km/h (1 Bft) W-NW 292 0 min 13,3 C 16,4 C 3,1 km/h (1 Bft)
23.08.2021 12:05 15,1 C 20,2 C 15,7 C 16,4 C 16,4 C 1,3 C 89 % 91 % 1015,4 hPa 0,7 l/m 3,1 km/h (1 Bft) W-SW 247 0 min 13,3 C 16,4 C 0,0 km/h (0 Bft)
23.08.2021 12:10 15,1 C 20,2 C 15,6 C 16,3 C 16,3 C 1,2 C 89 % 91 % 1015,4 hPa 0,0 l/m 2,4 km/h (1 Bft) W 270 0 min 13,3 C 16,3 C 11,6 km/h (2 Bft)
23.08.2021 12:15 15,0 C 20,2 C 15,6 C 16,3 C 16,3 C 1,3 C 89 % 91 % 1015,6 hPa 0,0 l/m 2,3 km/h (1 Bft) NW 315 0 min 13,2 C 16,3 C 0,0 km/h (0 Bft)
23.08.2021 12:20 14,9 C 20,2 C 15,6 C 16,3 C 16,3 C 1,4 C 89 % 91 % 1015,6 hPa 0,0 l/m 3,2 km/h (1 Bft) W-SW 247 0 min 13,1 C 16,3 C 2,6 km/h (1 Bft)
23.08.2021 12:25 14,9 C 20,2 C 15,5 C 16,1 C 16,1 C 1,2 C 89 % 91 % 1015,6 hPa 0,0 l/m 2,6 km/h (1 Bft) W 270 0 min 13,1 C 16,1 C 8,0 km/h (2 Bft)
23.08.2021 12:30 14,9 C 20,2 C 15,4 C 15,9 C 15,9 C 1,0 C 89 % 91 % 1015,6 hPa 0,0 l/m 2,4 km/h (1 Bft) W-SW 247 0 min 13,1 C 15,9 C 1,8 km/h (1 Bft)
23.08.2021 12:35 14,7 C 20,2 C 15,3 C 15,7 C 15,7 C 1,0 C 89 % 92 % 1015,9 hPa 0,0 l/m 3,2 km/h (1 Bft) W-NW 292 0 min 12,9 C 15,7 C 3,4 km/h (1 Bft)
23.08.2021 12:40 14,6 C 20,3 C 15,2 C 15,7 C 15,7 C 1,1 C 89 % 91 % 1015,9 hPa 0,7 l/m 2,7 km/h (1 Bft) NW 315 0 min 12,8 C 15,7 C 3,2 km/h (1 Bft)
23.08.2021 12:45 14,5 C 20,3 C 15,2 C 15,6 C 15,6 C 1,1 C 89 % 91 % 1015,9 hPa 0,0 l/m 2,6 km/h (1 Bft) W 270 0 min 12,7 C 15,6 C 3,1 km/h (1 Bft)
23.08.2021 12:50 14,4 C 20,3 C 15,1 C 15,5 C 15,5 C 1,1 C 89 % 91 % 1015,9 hPa 0,0 l/m 2,4 km/h (1 Bft) NO 45 0 min 12,6 C 15,5 C 0,0 km/h (0 Bft)
23.08.2021 12:55 14,4 C 20,3 C 15,0 C 15,4 C 15,4 C 1,0 C 89 % 91 % 1016,1 hPa 0,7 l/m 2,4 km/h (1 Bft) NW 315 0 min 12,6 C 15,4 C 5,6 km/h (1 Bft)
23.08.2021 13:00 14,3 C 20,3 C 14,9 C 15,4 C 15,4 C 1,1 C 89 % 91 % 1016,1 hPa 0,0 l/m 2,1 km/h (1 Bft) SO 135 0 min 12,5 C 15,4 C 12,6 km/h (3 Bft)
23.08.2021 13:05 14,2 C 20,3 C 14,9 C 15,3 C 15,3 C 1,1 C 89 % 92 % 1016,1 hPa 0,0 l/m 2,4 km/h (1 Bft) SO 135 0 min 12,4 C 15,3 C 6,0 km/h (2 Bft)
23.08.2021 13:10 14,0 C 20,3 C 14,8 C 15,2 C 15,2 C 1,2 C 89 % 92 % 1016,1 hPa 0,0 l/m 2,6 km/h (1 Bft) NW 315 0 min 12,2 C 15,2 C 4,3 km/h (1 Bft)
23.08.2021 13:15 14,1 C 20,3 C 14,7 C 15,2 C 15,2 C 1,1 C 89 % 92 % 1016,5 hPa 0,7 l/m 2,1 km/h (1 Bft) O-SO 112 0 min 12,3 C 15,2 C 1,8 km/h (1 Bft)
23.08.2021 13:20 13,9 C 20,2 C 14,6 C 15,1 C 15,1 C 1,2 C 89 % 92 % 1016,5 hPa 0,0 l/m 2,1 km/h (1 Bft) W 270 0 min 12,1 C 15,1 C 9,7 km/h (2 Bft)
23.08.2021 13:25 13,9 C 20,2 C 14,5 C 15,0 C 15,0 C 1,1 C 89 % 92 % 1016,5 hPa 0,0 l/m 2,3 km/h (1 Bft) NW 315 0 min 12,1 C 15,0 C 7,2 km/h (2 Bft)
23.08.2021 13:30 13,7 C 20,2 C 14,4 C 15,0 C 15,0 C 1,3 C 89 % 92 % 1016,5 hPa 0,7 l/m 1,9 km/h (1 Bft) SO 135 0 min 11,9 C 15,0 C 0,0 km/h (0 Bft)
23.08.2021 13:35 13,7 C 20,2 C 14,4 C 14,9 C 14,9 C 1,2 C 89 % 92 % 1016,2 hPa 0,0 l/m 1,9 km/h (1 Bft) N-NW 337 0 min 11,9 C 14,9 C 0,0 km/h (0 Bft)
23.08.2021 13:40 13,7 C 20,2 C 14,4 C 15,0 C 15,0 C 1,3 C 89 % 92 % 1016,2 hPa 0,0 l/m 2,1 km/h (1 Bft) N-NO 22 0 min 11,9 C 15,0 C 3,7 km/h (1 Bft)
23.08.2021 13:45 13,7 C 20,2 C 14,5 C 15,0 C 15,0 C 1,3 C 89 % 92 % 1016,2 hPa 0,0 l/m 1,6 km/h (1 Bft) N-NO 22 0 min 11,9 C 15,0 C 2,3 km/h (1 Bft)
23.08.2021 13:50 13,7 C 20,2 C 14,5 C 15,0 C 15,0 C 1,3 C 89 % 92 % 1016,2 hPa 0,0 l/m 1,6 km/h (1 Bft) SO 135 0 min 11,9 C 15,0 C 1,6 km/h (1 Bft)
23.08.2021 13:55 13,7 C 20,2 C 14,5 C 15,1 C 15,1 C 1,4 C 89 % 92 % 1016,3 hPa 0,0 l/m 1,6 km/h (1 Bft) N-NW 337 0 min 11,9 C 15,1 C 4,3 km/h (1 Bft)
23.08.2021 14:00 13,7 C 20,2 C 14,4 C 15,1 C 15,1 C 1,4 C 89 % 92 % 1016,3 hPa 0,0 l/m 2,4 km/h (1 Bft) W-SW 247 0 min 11,9 C 15,1 C 8,7 km/h (2 Bft)
23.08.2021 14:05 13,6 C 20,2 C 14,4 C 15,0 C 15,0 C 1,4 C 89 % 92 % 1016,3 hPa 0,7 l/m 3,2 km/h (1 Bft) SO 135 0 min 11,8 C 15,0 C 2,7 km/h (1 Bft)
23.08.2021 14:10 13,6 C 20,2 C 14,3 C 14,8 C 14,8 C 1,2 C 89 % 92 % 1016,3 hPa 0,0 l/m 3,2 km/h (1 Bft) SO 135 0 min 11,8 C 14,8 C 2,9 km/h (1 Bft)
23.08.2021 14:15 13,5 C 20,1 C 14,1 C 14,7 C 14,7 C 1,2 C 89 % 92 % 1016,6 hPa 0,0 l/m 3,4 km/h (1 Bft) N 360 0 min 11,7 C 14,7 C 10,9 km/h (2 Bft)
23.08.2021 14:20 13,5 C 20,1 C 14,1 C 14,6 C 14,6 C 1,1 C 89 % 92 % 1016,6 hPa 0,0 l/m 3,9 km/h (1 Bft) SW 225 0 min 11,7 C 14,6 C 13,2 km/h (3 Bft)
23.08.2021 14:25 13,3 C 20,1 C 14,0 C 14,5 C 14,5 C 1,2 C 89 % 92 % 1016,6 hPa 0,0 l/m 3,9 km/h (1 Bft) N-NO 22 0 min 11,5 C 14,5 C 8,0 km/h (2 Bft)
23.08.2021 14:30 13,2 C 20,1 C 13,9 C 14,4 C 14,4 C 1,2 C 89 % 92 % 1016,6 hPa 0,0 l/m 3,2 km/h (1 Bft) NO 45 0 min 11,4 C 14,4 C 3,4 km/h (1 Bft)
23.08.2021 14:35 13,2 C 20,1 C 14,0 C 14,4 C 14,4 C 1,2 C 89 % 92 % 1016,9 hPa 0,0 l/m 2,7 km/h (1 Bft) NW 315 0 min 11,4 C 14,4 C 1,9 km/h (1 Bft)
23.08.2021 14:40 13,2 C 20,1 C 14,0 C 14,4 C 14,4 C 1,2 C 89 % 92 % 1016,9 hPa 0,0 l/m 2,7 km/h (1 Bft) N-NW 337 0 min 11,4 C 14,4 C 6,3 km/h (2 Bft)
23.08.2021 14:45 13,2 C 20,1 C 13,9 C 14,4 C 14,4 C 1,2 C 89 % 92 % 1016,9 hPa 0,0 l/m 1,9 km/h (1 Bft) O-SO 112 0 min 11,4 C 14,4 C 0,0 km/h (0 Bft)
23.08.2021 14:50 13,2 C 20,1 C 13,9 C 14,4 C 14,4 C 1,2 C 89 % 92 % 1016,9 hPa 0,0 l/m 1,8 km/h (1 Bft) S 180 0 min 11,4 C 14,4 C 3,5 km/h (1 Bft)
23.08.2021 14:55 13,3 C 20,1 C 14,0 C 14,4 C 14,4 C 1,1 C 89 % 92 % 1017,2 hPa 0,7 l/m 1,8 km/h (1 Bft) N-NW 337 0 min 11,5 C 14,4 C 4,0 km/h (1 Bft)
23.08.2021 15:00 13,3 C 20,1 C 13,9 C 14,4 C 14,4 C 1,1 C 89 % 92 % 1017,2 hPa 0,0 l/m 1,9 km/h (1 Bft) N-NW 337 0 min 11,5 C 14,4 C 0,0 km/h (0 Bft)
23.08.2021 15:05 13,2 C 20,1 C 13,9 C 14,4 C 14,4 C 1,2 C 89 % 92 % 1017,2 hPa 0,0 l/m 1,6 km/h (1 Bft) O-NO 67 0 min 11,4 C 14,4 C 0,0 km/h (0 Bft)
23.08.2021 15:10 13,3 C 20,1 C 14,0 C 14,5 C 14,5 C 1,2 C 89 % 92 % 1017,2 hPa 0,0 l/m 1,4 km/h (1 Bft) S-SO 157 0 min 11,5 C 14,5 C 3,9 km/h (1 Bft)
23.08.2021 15:15 13,3 C 20,1 C 14,1 C 14,6 C 14,6 C 1,3 C 89 % 92 % 1017,3 hPa 0,0 l/m 1,6 km/h (1 Bft) N-NW 337 0 min 11,5 C 14,6 C 4,5 km/h (1 Bft)
23.08.2021 15:20 13,3 C 20,1 C 13,9 C 14,6 C 14,6 C 1,3 C 89 % 92 % 1017,3 hPa 0,0 l/m 1,8 km/h (1 Bft) SW 225 0 min 11,5 C 14,6 C 0,0 km/h (0 Bft)
23.08.2021 15:25 13,2 C 20,1 C 13,9 C 14,4 C 14,4 C 1,2 C 89 % 92 % 1017,3 hPa 0,0 l/m 1,4 km/h (1 Bft) W-SW 247 0 min 11,4 C 14,4 C 1,6 km/h (1 Bft)
23.08.2021 15:30 13,2 C 20,1 C 14,0 C 14,4 C 14,4 C 1,2 C 89 % 92 % 1017,3 hPa 0,0 l/m 1,3 km/h (1 Bft) S-SO 157 0 min 11,4 C 14,4 C 0,0 km/h (0 Bft)
23.08.2021 15:35 13,3 C 20,1 C 14,0 C 14,5 C 14,5 C 1,2 C 89 % 92 % 1017,7 hPa 0,0 l/m 0,8 km/h (0 Bft) NW 315 0 min 11,5 C 14,5 C 0,0 km/h (0 Bft)
23.08.2021 15:40 13,2 C 20,1 C 13,9 C 14,5 C 14,5 C 1,3 C 89 % 92 % 1017,7 hPa 0,7 l/m 1,0 km/h (0 Bft) W 270 0 min 11,4 C 14,5 C 4,7 km/h (1 Bft)
23.08.2021 15:45 13,2 C 20,1 C 14,0 C 14,5 C 14,5 C 1,3 C 89 % 92 % 1017,7 hPa 0,0 l/m 1,0 km/h (0 Bft) W 270 0 min 11,4 C 14,5 C 4,7 km/h (1 Bft)
23.08.2021 15:50 13,2 C 20,1 C 13,9 C 14,4 C 14,4 C 1,2 C 89 % 92 % 1017,7 hPa 0,0 l/m 1,4 km/h (1 Bft) W-NW 292 0 min 11,4 C 14,4 C 0,0 km/h (0 Bft)
23.08.2021 15:55 13,2 C 20,1 C 13,9 C 14,4 C 14,4 C 1,2 C 89 % 92 % 1017,7 hPa 0,0 l/m 1,8 km/h (1 Bft) NW 315 0 min 11,4 C 14,4 C 3,2 km/h (1 Bft)
23.08.2021 16:00 13,3 C 20,1 C 13,9 C 14,4 C 14,4 C 1,1 C 89 % 92 % 1017,7 hPa 0,0 l/m 1,4 km/h (1 Bft) S-SO 157 0 min 11,5 C 14,4 C 0,0 km/h (0 Bft)
23.08.2021 16:05 13,2 C 20,0 C 13,9 C 14,4 C 14,4 C 1,2 C 89 % 92 % 1017,7 hPa 0,7 l/m 1,8 km/h (1 Bft) NO 45 0 min 11,4 C 14,4 C 2,7 km/h (1 Bft)
23.08.2021 16:10 13,1 C 20,0 C 13,8 C 14,3 C 14,3 C 1,2 C 89 % 92 % 1017,7 hPa 0,0 l/m 2,9 km/h (1 Bft) W-SW 247 0 min 11,3 C 14,3 C 3,5 km/h (1 Bft)
23.08.2021 16:15 13,1 C 20,0 C 13,7 C 14,2 C 14,2 C 1,1 C 89 % 92 % 1018,0 hPa 0,0 l/m 3,2 km/h (1 Bft) W-NW 292 0 min 11,3 C 14,2 C 0,0 km/h (0 Bft)
23.08.2021 16:20 13,0 C 20,0 C 13,7 C 14,2 C 14,2 C 1,2 C 89 % 92 % 1018,0 hPa 0,0 l/m 2,7 km/h (1 Bft) SW 225 0 min 11,2 C 14,2 C 0,0 km/h (0 Bft)
23.08.2021 16:25 13,1 C 20,0 C 13,7 C 14,2 C 14,2 C 1,1 C 89 % 92 % 1018,0 hPa 0,0 l/m 2,4 km/h (1 Bft) NW 315 0 min 11,3 C 14,2 C 5,5 km/h (1 Bft)
23.08.2021 16:30 13,1 C 20,0 C 13,6 C 14,0 C 14,0 C 0,9 C 89 % 92 % 1018,0 hPa 0,0 l/m 3,5 km/h (1 Bft) SO 135 0 min 11,3 C 14,0 C 2,1 km/h (1 Bft)
23.08.2021 16:35 13,0 C 20,0 C 13,6 C 14,0 C 14,0 C 1,0 C 89 % 92 % 1018,2 hPa 0,0 l/m 3,7 km/h (1 Bft) N-NW 337 0 min 11,2 C 14,0 C 2,9 km/h (1 Bft)
23.08.2021 16:40 12,9 C 20,0 C 13,6 C 14,1 C 14,1 C 1,2 C 89 % 92 % 1018,2 hPa 0,0 l/m 2,1 km/h (1 Bft) NW 315 0 min 11,1 C 14,1 C 7,4 km/h (2 Bft)
23.08.2021 16:45 12,9 C 20,0 C 13,6 C 14,1 C 14,1 C 1,2 C 89 % 92 % 1018,2 hPa 0,7 l/m 1,6 km/h (1 Bft) S-SO 157 0 min 11,1 C 14,1 C 1,9 km/h (1 Bft)
23.08.2021 16:50 12,9 C 20,0 C 13,5 C 14,0 C 14,0 C 1,1 C 89 % 92 % 1018,2 hPa 0,0 l/m 2,1 km/h (1 Bft) N-NO 22 0 min 11,1 C 14,0 C 2,3 km/h (1 Bft)
23.08.2021 16:55 12,9 C 20,0 C 13,6 C 14,0 C 14,0 C 1,1 C 89 % 92 % 1018,5 hPa 0,0 l/m 2,1 km/h (1 Bft) NW 315 0 min 11,1 C 14,0 C 4,8 km/h (1 Bft)
23.08.2021 17:00 12,9 C 20,0 C 13,6 C 14,0 C 14,0 C 1,1 C 89 % 92 % 1018,5 hPa 0,0 l/m 2,1 km/h (1 Bft) NW 315 0 min 11,1 C 14,0 C 8,2 km/h (2 Bft)
23.08.2021 17:05 12,9 C 20,0 C 13,6 C 14,1 C 14,1 C 1,2 C 89 % 91 % 1018,5 hPa 0,0 l/m 1,8 km/h (1 Bft) W-NW 292 0 min 11,1 C 14,1 C 0,0 km/h (0 Bft)
23.08.2021 17:10 13,0 C 20,0 C 13,7 C 14,1 C 14,1 C 1,1 C 89 % 91 % 1018,5 hPa 0,0 l/m 1,4 km/h (1 Bft) W 270 0 min 11,2 C 14,1 C 2,9 km/h (1 Bft)
23.08.2021 17:15 12,9 C 20,0 C 13,7 C 14,0 C 14,0 C 1,1 C 89 % 92 % 1018,6 hPa 0,0 l/m 2,4 km/h (1 Bft) W 270 0 min 11,1 C 14,0 C 6,4 km/h (2 Bft)
23.08.2021 17:20 12,9 C 19,9 C 13,5 C 14,0 C 14,0 C 1,1 C 89 % 92 % 1018,6 hPa 0,0 l/m 3,4 km/h (1 Bft) W 270 0 min 11,1 C 14,0 C 16,3 km/h (3 Bft)
23.08.2021 17:25 12,8 C 19,9 C 13,4 C 13,9 C 13,9 C 1,1 C 89 % 92 % 1018,6 hPa 0,0 l/m 3,5 km/h (1 Bft) NW 315 0 min 11,0 C 13,9 C 10,3 km/h (2 Bft)
23.08.2021 17:30 12,7 C 19,9 C 13,4 C 13,8 C 13,8 C 1,1 C 89 % 92 % 1018,6 hPa 0,0 l/m 3,4 km/h (1 Bft) O-SO 112 0 min 10,9 C 13,8 C 0,0 km/h (0 Bft)
23.08.2021 17:35 12,6 C 19,9 C 13,4 C 13,8 C 13,8 C 1,2 C 89 % 92 % 1018,2 hPa 0,0 l/m 3,1 km/h (1 Bft) W 270 0 min 10,8 C 13,8 C 2,4 km/h (1 Bft)
23.08.2021 17:40 12,6 C 19,9 C 13,3 C 13,6 C 13,6 C 1,0 C 89 % 92 % 1018,2 hPa 0,0 l/m 1,9 km/h (1 Bft) NW 315 0 min 10,8 C 13,6 C 1,6 km/h (1 Bft)
23.08.2021 17:45 12,5 C 19,9 C 13,3 C 13,6 C 13,6 C 1,1 C 89 % 92 % 1018,2 hPa 0,0 l/m 2,3 km/h (1 Bft) N-NW 337 0 min 10,7 C 13,6 C 3,1 km/h (1 Bft)
23.08.2021 17:50 12,4 C 19,9 C 13,2 C 13,6 C 13,6 C 1,2 C 89 % 92 % 1018,2 hPa 0,0 l/m 2,6 km/h (1 Bft) W-NW 292 0 min 10,6 C 13,6 C 3,7 km/h (1 Bft)
23.08.2021 17:55 12,4 C 19,9 C 13,2 C 13,5 C 13,5 C 1,1 C 89 % 92 % 1018,6 hPa 0,0 l/m 2,3 km/h (1 Bft) O-NO 67 0 min 10,6 C 13,5 C 2,1 km/h (1 Bft)
23.08.2021 18:00 12,5 C 19,9 C 13,1 C 13,5 C 13,5 C 1,0 C 89 % 92 % 1018,6 hPa 0,0 l/m 1,9 km/h (1 Bft) W-NW 292 0 min 10,7 C 13,5 C 2,7 km/h (1 Bft)
23.08.2021 18:05 12,4 C 19,8 C 13,1 C 13,5 C 13,5 C 1,1 C 89 % 92 % 1018,6 hPa 0,0 l/m 1,6 km/h (1 Bft) W-NW 292 0 min 10,6 C 13,5 C 4,8 km/h (1 Bft)
23.08.2021 18:10 12,5 C 19,8 C 13,1 C 13,5 C 13,5 C 1,0 C 89 % 92 % 1018,6 hPa 0,0 l/m 1,4 km/h (1 Bft) NO 45 0 min 10,7 C 13,5 C 0,0 km/h (0 Bft)
23.08.2021 18:15 12,4 C 19,8 C 13,1 C 13,5 C 13,5 C 1,1 C 89 % 92 % 1018,8 hPa 0,0 l/m 1,4 km/h (1 Bft) O-NO 67 0 min 10,6 C 13,5 C 2,3 km/h (1 Bft)
23.08.2021 18:20 12,4 C 19,8 C 13,1 C 13,4 C 13,4 C 1,0 C 89 % 92 % 1018,8 hPa 0,0 l/m 1,1 km/h (1 Bft) O 90 0 min 10,6 C 13,4 C 2,9 km/h (1 Bft)
23.08.2021 18:25 12,4 C 19,8 C 13,1 C 13,4 C 13,4 C 1,0 C 89 % 92 % 1018,8 hPa 0,0 l/m 1,4 km/h (1 Bft) NW 315 0 min 10,6 C 13,4 C 6,0 km/h (2 Bft)
23.08.2021 18:30 12,3 C 19,8 C 13,0 C 13,4 C 13,4 C 1,1 C 89 % 92 % 1018,8 hPa 0,7 l/m 2,1 km/h (1 Bft) SO 135 0 min 10,5 C 13,4 C 0,0 km/h (0 Bft)
23.08.2021 18:35 12,3 C 19,8 C 13,0 C 13,3 C 13,3 C 1,0 C 89 % 92 % 1019,2 hPa 0,0 l/m 1,8 km/h (1 Bft) NW 315 0 min 10,5 C 13,3 C 0,0 km/h (0 Bft)
23.08.2021 18:40 12,3 C 19,8 C 13,0 C 13,2 C 13,2 C 0,9 C 89 % 92 % 1019,2 hPa 0,0 l/m 1,3 km/h (1 Bft) O 90 0 min 10,5 C 13,2 C 0,0 km/h (0 Bft)
23.08.2021 18:45 12,3 C 19,8 C 12,9 C 13,2 C 13,2 C 0,9 C 89 % 92 % 1019,2 hPa 0,0 l/m 1,0 km/h (0 Bft) S-SW 202 0 min 10,5 C 13,2 C 0,0 km/h (0 Bft)
23.08.2021 18:50 12,3 C 19,8 C 13,0 C 13,2 C 13,2 C 0,9 C 89 % 92 % 1019,2 hPa 0,0 l/m 1,0 km/h (0 Bft) O-NO 67 0 min 10,5 C 13,2 C 1,9 km/h (1 Bft)
23.08.2021 18:55 12,3 C 19,8 C 12,9 C 13,2 C 13,2 C 0,9 C 89 % 92 % 1018,5 hPa 0,0 l/m 1,1 km/h (1 Bft) N-NO 22 0 min 10,5 C 13,2 C 2,1 km/h (1 Bft)
23.08.2021 19:00 12,1 C 19,8 C 12,9 C 13,2 C 13,2 C 1,1 C 89 % 92 % 1018,5 hPa 0,0 l/m 1,3 km/h (1 Bft) NW 315 0 min 10,3 C 13,2 C 5,1 km/h (1 Bft)
23.08.2021 19:05 12,3 C 19,8 C 12,9 C 13,2 C 13,2 C 0,9 C 89 % 92 % 1018,5 hPa 0,0 l/m 1,1 km/h (1 Bft) O 90 0 min 10,5 C 13,2 C 1,6 km/h (1 Bft)
23.08.2021 19:10 12,3 C 19,7 C 12,9 C 13,2 C 13,2 C 0,9 C 89 % 92 % 1018,5 hPa 0,0 l/m 1,3 km/h (1 Bft) S 180 0 min 10,5 C 13,2 C 0,0 km/h (0 Bft)
23.08.2021 19:15 12,1 C 19,7 C 12,9 C 13,2 C 13,2 C 1,1 C 89 % 92 % 1019,5 hPa 0,0 l/m 1,9 km/h (1 Bft) SW 225 0 min 10,3 C 13,2 C 3,2 km/h (1 Bft)
23.08.2021 19:20 12,1 C 19,7 C 12,8 C 13,1 C 13,1 C 1,0 C 89 % 92 % 1019,5 hPa 0,0 l/m 2,1 km/h (1 Bft) N-NO 22 0 min 10,3 C 13,1 C 3,5 km/h (1 Bft)
23.08.2021 19:25 12,0 C 19,7 C 12,8 C 13,0 C 13,0 C 1,0 C 89 % 92 % 1019,5 hPa 0,0 l/m 1,6 km/h (1 Bft) W-SW 247 0 min 10,2 C 13,0 C 5,3 km/h (1 Bft)
23.08.2021 19:30 12,0 C 19,7 C 12,7 C 13,0 C 13,0 C 1,0 C 89 % 92 % 1019,5 hPa 0,0 l/m 1,4 km/h (1 Bft) N 360 5 min 10,2 C 13,0 C 3,5 km/h (1 Bft)
23.08.2021 19:35 12,0 C 19,7 C 12,7 C 12,9 C 12,9 C 0,9 C 89 % 92 % 1019,7 hPa 0,0 l/m 1,9 km/h (1 Bft) N-NW 337 5 min 10,2 C 12,9 C 3,1 km/h (1 Bft)
23.08.2021 19:40 12,0 C 19,7 C 12,6 C 12,8 C 12,8 C 0,8 C 89 % 92 % 1019,7 hPa 0,0 l/m 1,8 km/h (1 Bft) NW 315 5 min 10,2 C 12,8 C 4,8 km/h (1 Bft)
23.08.2021 19:45 11,9 C 19,7 C 12,6 C 12,8 C 12,8 C 0,9 C 89 % 92 % 1019,7 hPa 0,0 l/m 1,0 km/h (0 Bft) NW 315 5 min 10,1 C 12,8 C 0,0 km/h (0 Bft)
23.08.2021 19:50 11,9 C 19,7 C 12,7 C 12,8 C 12,8 C 0,9 C 89 % 92 % 1019,7 hPa 0,0 l/m 0,5 km/h (0 Bft) NW 315 5 min 10,1 C 12,8 C 2,3 km/h (1 Bft)
23.08.2021 19:55 11,9 C 19,6 C 12,7 C 12,8 C 12,8 C 0,9 C 89 % 92 % 1020,0 hPa 0,0 l/m 0,6 km/h (0 Bft) W-NW 292 5 min 10,1 C 12,8 C 2,6 km/h (1 Bft)
23.08.2021 20:00 11,9 C 19,7 C 12,7 C 12,8 C 12,8 C 0,9 C 89 % 92 % 1020,0 hPa 0,0 l/m 1,1 km/h (1 Bft) W 270 5 min 10,1 C 12,8 C 2,1 km/h (1 Bft)
23.08.2021 20:05 11,8 C 19,7 C 12,6 C 12,8 C 12,8 C 1,0 C 89 % 92 % 1020,0 hPa 0,0 l/m 1,1 km/h (1 Bft) N-NW 337 0 min 10,0 C 12,8 C 0,0 km/h (0 Bft)
23.08.2021 20:10 11,9 C 19,6 C 12,7 C 12,8 C 12,8 C 0,9 C 89 % 92 % 1020,0 hPa 0,0 l/m 0,6 km/h (0 Bft) W-NW 292 0 min 10,1 C 12,8 C 1,8 km/h (1 Bft)
23.08.2021 20:15 11,9 C 19,6 C 12,6 C 12,8 C 12,8 C 0,9 C 89 % 92 % 1020,2 hPa 0,0 l/m 0,2 km/h (0 Bft) SO 135 0 min 10,1 C 12,8 C 0,0 km/h (0 Bft)
23.08.2021 20:20 11,8 C 19,6 C 12,7 C 12,7 C 12,7 C 0,9 C 89 % 92 % 1020,2 hPa 0,0 l/m 0,2 km/h (0 Bft) S-SO 157 0 min 10,0 C 12,7 C 0,0 km/h (0 Bft)
23.08.2021 20:25 11,8 C 19,6 C 12,7 C 12,7 C 12,7 C 0,9 C 89 % 92 % 1020,2 hPa 0,0 l/m 0,2 km/h (0 Bft) NW 315 0 min 10,0 C 12,7 C 2,1 km/h (1 Bft)
23.08.2021 20:30 11,8 C 19,6 C 12,6 C 12,7 C 12,7 C 0,9 C 89 % 92 % 1020,2 hPa 0,0 l/m 0,2 km/h (0 Bft) NW 315 0 min 10,0 C 12,7 C 0,0 km/h (0 Bft)
23.08.2021 20:35 11,8 C 19,6 C 12,6 C 12,7 C 12,7 C 0,9 C 89 % 92 % 1020,4 hPa 0,0 l/m 0,2 km/h (0 Bft) S 180 0 min 10,0 C 12,7 C 0,0 km/h (0 Bft)
23.08.2021 20:40 11,8 C 19,6 C 12,7 C 12,7 C 12,7 C 0,9 C 89 % 92 % 1020,4 hPa 0,0 l/m 0,0 km/h (0 Bft) W-SW 247 0 min 10,0 C 12,7 C 0,0 km/h (0 Bft)
23.08.2021 20:45 11,9 C 19,6 C 12,7 C 12,7 C 12,7 C 0,8 C 89 % 92 % 1020,4 hPa 0,0 l/m 0,0 km/h (0 Bft) SW 225 0 min 10,1 C 12,7 C 0,0 km/h (0 Bft)
23.08.2021 20:50 11,9 C 19,6 C 12,7 C 12,7 C 12,7 C 0,8 C 89 % 92 % 1020,4 hPa 0,0 l/m 0,0 km/h (0 Bft) SW 225 0 min 10,1 C 12,7 C 0,0 km/h (0 Bft)
23.08.2021 20:55 11,9 C 19,6 C 12,7 C 12,7 C 12,7 C 0,8 C 89 % 92 % 1020,6 hPa 0,0 l/m 0,0 km/h (0 Bft) SW 225 0 min 10,1 C 12,7 C 0,0 km/h (0 Bft)
23.08.2021 21:00 11,9 C 19,6 C 12,7 C 12,7 C 12,7 C 0,8 C 89 % 92 % 1020,6 hPa 0,0 l/m 0,0 km/h (0 Bft) W 270 0 min 10,1 C 12,7 C 0,0 km/h (0 Bft)
23.08.2021 21:05 11,9 C 19,6 C 12,7 C 12,7 C 12,7 C 0,8 C 89 % 92 % 1020,6 hPa 0,0 l/m 0,0 km/h (0 Bft) W 270 0 min 10,1 C 12,7 C 0,0 km/h (0 Bft)
23.08.2021 21:10 11,9 C 19,6 C 12,7 C 12,7 C 12,7 C 0,8 C 89 % 92 % 1020,6 hPa 0,0 l/m 0,0 km/h (0 Bft) W 270 0 min 10,1 C 12,7 C 0,0 km/h (0 Bft)
23.08.2021 21:15 11,9 C 19,6 C 12,7 C 12,8 C 12,8 C 0,9 C 89 % 92 % 1021,6 hPa 0,7 l/m 0,0 km/h (0 Bft) W 270 0 min 10,1 C 12,8 C 0,0 km/h (0 Bft)
23.08.2021 21:20 11,9 C 19,6 C 12,7 C 12,8 C 12,8 C 0,9 C 89 % 92 % 1021,6 hPa 0,0 l/m 0,0 km/h (0 Bft) NW 315 0 min 10,1 C 12,8 C 0,0 km/h (0 Bft)
23.08.2021 21:25 12,0 C 19,6 C 12,7 C 12,8 C 12,8 C 0,8 C 89 % 92 % 1021,6 hPa 0,0 l/m 0,2 km/h (0 Bft) W 270 0 min 10,2 C 12,8 C 0,0 km/h (0 Bft)
23.08.2021 21:30 11,9 C 19,6 C 12,7 C 12,8 C 12,8 C 0,9 C 89 % 92 % 1021,6 hPa 0,0 l/m 0,2 km/h (0 Bft) NW 315 0 min 10,1 C 12,8 C 2,1 km/h (1 Bft)
23.08.2021 21:35 11,9 C 19,6 C 12,6 C 12,8 C 12,8 C 0,9 C 89 % 92 % 1020,9 hPa 0,0 l/m 0,2 km/h (0 Bft) W-NW 292 0 min 10,1 C 12,8 C 0,0 km/h (0 Bft)
23.08.2021 21:40 11,9 C 19,6 C 12,6 C 12,8 C 12,8 C 0,9 C 89 % 92 % 1020,9 hPa 0,0 l/m 0,2 km/h (0 Bft) W 270 0 min 10,1 C 12,8 C 0,0 km/h (0 Bft)
23.08.2021 21:45 11,9 C 19,6 C 12,6 C 12,7 C 12,7 C 0,8 C 89 % 92 % 1020,9 hPa 0,0 l/m 0,0 km/h (0 Bft) NW 315 0 min 10,1 C 12,7 C 0,0 km/h (0 Bft)
23.08.2021 21:50 11,9 C 19,6 C 12,6 C 12,7 C 12,7 C 0,8 C 89 % 92 % 1020,9 hPa 0,7 l/m 0,3 km/h (0 Bft) NW 315 0 min 10,1 C 12,7 C 2,7 km/h (1 Bft)
23.08.2021 21:55 11,9 C 19,6 C 12,6 C 12,7 C 12,7 C 0,8 C 89 % 92 % 1021,4 hPa 0,0 l/m 1,0 km/h (0 Bft) NW 315 0 min 10,1 C 12,7 C 0,0 km/h (0 Bft)
23.08.2021 22:00 11,9 C 19,6 C 12,6 C 12,7 C 12,7 C 0,8 C 89 % 92 % 1021,4 hPa 0,0 l/m 0,8 km/h (0 Bft) SO 135 0 min 10,1 C 12,7 C 0,0 km/h (0 Bft)
23.08.2021 22:05 11,9 C 19,6 C 12,5 C 12,6 C 12,6 C 0,7 C 89 % 92 % 1021,4 hPa 0,0 l/m 0,5 km/h (0 Bft) S-SW 202 0 min 10,1 C 12,6 C 0,0 km/h (0 Bft)
23.08.2021 22:10 11,7 C 19,5 C 12,5 C 12,6 C 12,6 C 0,9 C 89 % 92 % 1021,4 hPa 0,0 l/m 0,3 km/h (0 Bft) W 270 0 min 9,9 C 12,6 C 0,0 km/h (0 Bft)
23.08.2021 22:15 11,7 C 19,5 C 12,5 C 12,6 C 12,6 C 0,9 C 89 % 92 % 1021,1 hPa 0,0 l/m 0,3 km/h (0 Bft) W-SW 247 0 min 9,9 C 12,6 C 1,8 km/h (1 Bft)
23.08.2021 22:20 11,7 C 19,5 C 12,5 C 12,6 C 12,6 C 0,9 C 89 % 92 % 1021,1 hPa 0,0 l/m 0,5 km/h (0 Bft) W-SW 247 0 min 9,9 C 12,6 C 2,6 km/h (1 Bft)
23.08.2021 22:25 11,7 C 19,5 C 12,4 C 12,6 C 12,6 C 0,9 C 89 % 92 % 1021,1 hPa 0,0 l/m 0,8 km/h (0 Bft) W 270 0 min 9,9 C 12,6 C 1,9 km/h (1 Bft)
23.08.2021 22:30 11,7 C 19,5 C 12,4 C 12,6 C 12,6 C 0,9 C 89 % 92 % 1021,1 hPa 0,0 l/m 2,1 km/h (1 Bft) NW 315 0 min 9,9 C 12,6 C 8,2 km/h (2 Bft)
23.08.2021 22:35 11,7 C 19,5 C 12,4 C 12,6 C 12,6 C 0,9 C 89 % 92 % 1021,2 hPa 0,0 l/m 2,9 km/h (1 Bft) O-NO 67 0 min 9,9 C 12,6 C 3,2 km/h (1 Bft)
23.08.2021 22:40 11,7 C 19,5 C 12,4 C 12,6 C 12,6 C 0,9 C 89 % 92 % 1021,2 hPa 0,0 l/m 1,6 km/h (1 Bft) NW 315 0 min 9,9 C 12,6 C 3,5 km/h (1 Bft)
23.08.2021 22:45 11,7 C 19,5 C 12,3 C 12,6 C 12,6 C 0,9 C 89 % 92 % 1021,2 hPa 0,0 l/m 1,1 km/h (1 Bft) NW 315 0 min 9,9 C 12,6 C 6,9 km/h (2 Bft)
23.08.2021 22:50 11,6 C 19,5 C 12,3 C 12,6 C 12,6 C 1,0 C 89 % 92 % 1021,2 hPa 0,0 l/m 1,8 km/h (1 Bft) NW 315 0 min 9,8 C 12,6 C 7,4 km/h (2 Bft)
23.08.2021 22:55 11,6 C 19,5 C 12,3 C 12,6 C 12,6 C 1,0 C 89 % 92 % 1020,9 hPa 0,0 l/m 1,8 km/h (1 Bft) SW 225 0 min 9,8 C 12,6 C 1,8 km/h (1 Bft)
23.08.2021 23:00 11,6 C 19,5 C 12,3 C 12,6 C 12,6 C 1,0 C 89 % 92 % 1020,9 hPa 0,0 l/m 2,3 km/h (1 Bft) W 270 0 min 9,8 C 12,6 C 3,2 km/h (1 Bft)
23.08.2021 23:05 11,6 C 19,5 C 12,3 C 12,6 C 12,6 C 1,0 C 89 % 92 % 1020,9 hPa 0,0 l/m 1,9 km/h (1 Bft) W 270 0 min 9,8 C 12,6 C 2,9 km/h (1 Bft)
23.08.2021 23:10 11,6 C 19,5 C 12,3 C 12,6 C 12,6 C 1,0 C 89 % 92 % 1020,9 hPa 0,7 l/m 1,6 km/h (1 Bft) W 270 0 min 9,8 C 12,6 C 1,6 km/h (1 Bft)
23.08.2021 23:15 11,6 C 19,5 C 12,3 C 12,6 C 12,6 C 1,0 C 89 % 92 % 1021,2 hPa 0,0 l/m 1,6 km/h (1 Bft) NW 315 0 min 9,8 C 12,6 C 4,0 km/h (1 Bft)
23.08.2021 23:20 11,6 C 19,5 C 12,4 C 12,6 C 12,6 C 1,0 C 89 % 92 % 1021,2 hPa 0,0 l/m 0,6 km/h (0 Bft) S-SO 157 0 min 9,8 C 12,6 C 0,0 km/h (0 Bft)
23.08.2021 23:25 11,6 C 19,5 C 12,3 C 12,6 C 12,6 C 1,0 C 89 % 92 % 1021,2 hPa 0,0 l/m 0,2 km/h (0 Bft) SW 225 0 min 9,8 C 12,6 C 0,0 km/h (0 Bft)
23.08.2021 23:30 11,6 C 19,5 C 12,4 C 12,6 C 12,6 C 1,0 C 89 % 92 % 1021,2 hPa 0,0 l/m 0,2 km/h (0 Bft) NO 45 0 min 9,8 C 12,6 C 0,0 km/h (0 Bft)
23.08.2021 23:35 11,6 C 19,5 C 12,4 C 12,6 C 12,6 C 1,0 C 89 % 92 % 1021,1 hPa 0,0 l/m 0,3 km/h (0 Bft) SO 135 0 min 9,8 C 12,6 C 0,0 km/h (0 Bft)
23.08.2021 23:40 11,6 C 19,5 C 12,4 C 12,6 C 12,6 C 1,0 C 89 % 92 % 1021,1 hPa 0,0 l/m 0,3 km/h (0 Bft) NW 315 0 min 9,8 C 12,6 C 0,0 km/h (0 Bft)
23.08.2021 23:45 11,6 C 19,5 C 12,4 C 12,6 C 12,6 C 1,0 C 89 % 92 % 1021,1 hPa 0,0 l/m 0,2 km/h (0 Bft) SO 135 0 min 9,8 C 12,6 C 0,0 km/h (0 Bft)
23.08.2021 23:50 11,7 C 19,5 C 12,4 C 12,6 C 12,6 C 0,9 C 89 % 92 % 1021,1 hPa 0,0 l/m 0,0 km/h (0 Bft) SO 135 0 min 9,9 C 12,6 C 0,0 km/h (0 Bft)
23.08.2021 23:55 11,7 C 19,5 C 12,4 C 12,6 C 12,6 C 0,9 C 89 % 92 % 1021,2 hPa 0,0 l/m 0,0 km/h (0 Bft) O 90 0 min 9,9 C 12,6 C 0,0 km/h (0 Bft)
_ Min-Zeit 22:50 07:15 22:45 22:05 22:05 22:05 00:55 04:30 06:55 - 00:00 - - - 22:50 22:05 00:00
Minimum _ 11,6 C 19,5 C 12,3 C 12,6 C 12,6 C 0,7 C 87 % 91 % 1014,1 hPa - 0,0 km/h (0 Bft) - - - 9,8 C 12,6 C 0,0 km/h (0 Bft)
_ Max-Zeit 11:50 12:40 11:45 11:45 11:45 11:45 03:35 00:00 21:15 05:50 12:00 - - 06:20 11:50 11:45 17:20
Maximum _ 15,3 C 20,3 C 15,9 C 17,0 C 17,0 C 1,8 C 89 % 92 % 1021,6 hPa 2,7 l/m 3,9 km/h
W-NW (1 Bft)
- - 5 min 13,5 C 17,0 C 16,3 km/h
W (3 Bft)
Durchschnitt _ 13,3 C 19,9 C 14,1 C 14,5 C 14,5 C 1,2 C 89 % 92 % 1016,7 hPa #37,8 l/m 1,1 km/h (1 Bft) NW - #1:15 h 11,5 C 14,5 C 2,0 km/h (1 Bft)
2021 www.wetterstation-wechselburg.de